Find Starlink 31108

NORAD ID: 58738 Int'l Des: 2024-005 Owner: SPXS Country: US Constellation: starlink operational
LEOCIRCULAR

現在のビュー

3D地球を読み込み中...

About Starlink 31108

Starlink 31108 (NORAD 58738) is a starlink constellation satellite (v2 mini) launched Jan 7, 2024 by SPXS of US. It operates in LEO, CIRCULAR orbit with a mass of 730.00 kg.

Starlink 31108について

説明を読み込み中...

次回通過

Passes for default location (London). Set your location on the main map for personalized predictions.

高度履歴

Loading altitude history...

軌道要素

1 58738U 24005L 26170.61577544 .00000812 00000-0 39030-4 0 9997
2 58738 43.0044 3.9811 0001678 265.5182 94.5478 15.27581346136022
Epoch: Jun 19, 2026 • Age: 46 hours

現在のステータス

高度 489.0 km
速度 7.62 km/s
衛星直下点 -26.14°S, 96.16°E
打ち上げ日 Jan 7, 2024
運用期間 2.4 years
タイプ internet

技術仕様

分類 Payload
質量 730.00 kg
乾燥質量 700.00 kg
総質量 730.00 kg
長さ 0.30 m
直径 4.10 m
スパン 29.00 m
形状 Box + pan
製造者 SPXS
バスタイプ Starlink V2M
フェーズステータス In Orbit
所有者/国 SPXS/US

Most Searched